| time (UTC) | temp C | wind direction | speed KPH | gust KPH | rain 1hr cm | rain 24hr cm | rain mn cm | humidity % | barometer mb |
| 20260504223047 | 25 | 141 | 1.6 | 8.0 | 0.00 | 0.00 | 0.00 | 72 | 1012.2 |
| 20260504221557 | 25 | 131 | 0.0 | 6.4 | 0.00 | 0.00 | 0.00 | 71 | 1012.4 |
| 20260504220047 | 25 | 205 | 0.0 | 9.7 | 0.00 | 0.00 | 0.00 | 70 | 1012.4 |
| 20260504214550 | 25 | 147 | 0.0 | 6.4 | 0.00 | 0.00 | 0.00 | 69 | 1012.6 |
| 20260504213051 | 26 | 135 | 0.0 | 4.8 | 0.00 | 0.00 | 0.00 | 69 | 1012.6 |
| 20260504211541 | 26 | 218 | 0.0 | 11.3 | 0.00 | 0.00 | 0.00 | 67 | 1012.7 |
| 20260504210049 | 26 | 169 | 0.0 | 8.0 | 0.00 | 0.00 | 0.00 | 66 | 1013.0 |
| 20260504204617 | 26 | 168 | 0.0 | 6.4 | 0.00 | 0.00 | 0.00 | 66 | 1013.0 |
| 20260504203036 | 26 | 150 | 1.6 | 8.0 | 0.00 | 0.00 | 0.00 | 66 | 1013.3 |
| 20260504201532 | 27 | 191 | 0.0 | 8.0 | 0.00 | 0.00 | 0.00 | 64 | 1013.5 |
| 20260504200037 | 26 | 219 | 0.0 | 14.5 | 0.00 | 0.00 | 0.00 | 66 | 1013.5 |
| 20260504194538 | 26 | 18 | 0.0 | 6.4 | 0.00 | 0.00 | 0.00 | 65 | 1013.6 |
| 20260504193028 | 27 | 238 | 0.0 | 8.0 | 0.00 | 0.00 | 0.00 | 64 | 1014.1 |
| 20260504191529 | 27 | 129 | 0.0 | 6.4 | 0.00 | 0.00 | 0.00 | 64 | 1014.2 |
| 20260504190033 | 27 | 230 | 1.6 | 8.0 | 0.00 | 0.00 | 0.00 | 63 | 1014.2 |
| 20260504184525 | 26 | 197 | 1.6 | 9.7 | 0.00 | 0.00 | 0.00 | 64 | 1014.3 |
| 20260504183024 | 26 | 75 | 0.0 | 11.3 | 0.00 | 0.00 | 0.00 | 66 | 1014.3 |
| 20260504181518 | 26 | 187 | 0.0 | 16.1 | 0.00 | 0.00 | 0.00 | 65 | 1014.6 |
| 20260504180018 | 26 | 172 | 0.0 | 9.7 | 0.00 | 0.00 | 0.00 | 65 | 1014.8 |
| 20260504174515 | 26 | 163 | 0.0 | 9.7 | 0.00 | 0.00 | 0.00 | 65 | 1014.8 |
| 20260504173012 | 26 | 154 | 0.0 | 8.0 | 0.00 | 0.00 | 0.00 | 65 | 1015.3 |
| 20260504171532 | 25 | 128 | 1.6 | 12.9 | 0.00 | 0.00 | 0.00 | 64 | 1015.3 |
| 20260504081523 | 17 | 204 | 0.0 | 0.0 | 0.00 | 0.00 | 0.00 | 79 | 1016.7 |
| 20260504044547 | 17 | 203 | 0.0 | 0.0 | 0.00 | 0.00 | 0.00 | 72 | 1018.8 |
| 20260504043048 | 17 | 203 | 0.0 | 0.0 | 0.00 | 0.00 | 0.00 | 72 | 1018.9 |
| 20260504041549 | 17 | 203 | 0.0 | 0.0 | 0.00 | 0.00 | 0.00 | 70 | 1018.7 |
| 20260504040046 | 17 | 203 | 0.0 | 0.0 | 0.00 | 0.00 | 0.00 | 69 | 1018.7 |
| 20260504034600 | 18 | 203 | 0.0 | 0.0 | 0.00 | 0.00 | 0.00 | 68 | 1018.8 |
| 20260504033044 | 18 | 203 | 0.0 | 0.0 | 0.00 | 0.00 | 0.00 | 66 | 1018.8 |
| 20260504031543 | 18 | 203 | 0.0 | 0.0 | 0.00 | 0.00 | 0.00 | 65 | 1018.6 |
| 20260504030044 | 19 | 219 | 0.0 | 0.0 | 0.00 | 0.00 | 0.00 | 64 | 1018.6 |
| 20260504024543 | 19 | 219 | 0.0 | 0.0 | 0.00 | 0.00 | 0.00 | 64 | 1018.7 |
| 20260504023042 | 20 | 217 | 0.0 | 0.0 | 0.00 | 0.00 | 0.00 | 63 | 1018.7 |
| 20260504021541 | 20 | 217 | 0.0 | 1.6 | 0.00 | 0.00 | 0.00 | 63 | 1018.6 |
| 20260504020041 | 20 | 216 | 0.0 | 1.6 | 0.00 | 0.00 | 0.00 | 61 | 1018.6 |
| 20260504014553 | 21 | 207 | 0.0 | 1.6 | 0.00 | 0.00 | 0.00 | 61 | 1018.5 |
| 20260504013042 | 21 | 222 | 0.0 | 1.6 | 0.00 | 0.00 | 0.00 | 60 | 1018.6 |
| 20260504011543 | 21 | 181 | 0.0 | 1.6 | 0.00 | 0.00 | 0.00 | 58 | 1018.5 |
| 20260504010039 | 21 | 211 | 0.0 | 1.6 | 0.00 | 0.00 | 0.00 | 56 | 1018.5 |
| 20260504004539 | 22 | 245 | 0.0 | 1.6 | 0.00 | 0.00 | 0.00 | 54 | 1018.4 |
| 20260504003048 | 22 | 263 | 0.0 | 4.8 | 0.00 | 0.00 | 0.00 | 52 | 1018.3 |
| 20260504001536 | 23 | 133 | 0.0 | 3.2 | 0.00 | 0.00 | 0.00 | 51 | 1018.4 |
| 20260504000035 | 23 | 212 | 0.0 | 4.8 | 0.00 | 0.00 | 0.00 | 50 | 1018.4 |
| 20260503234544 | 25 | 167 | 0.0 | 9.7 | 0.00 | 0.00 | 0.00 | 47 | 1018.5 |
| 20260503233032 | 25 | 119 | 0.0 | 4.8 | 0.00 | 0.00 | 0.00 | 47 | 1018.7 |
| 20260503231530 | 25 | 81 | 0.0 | 4.8 | 0.00 | 0.00 | 0.00 | 46 | 1018.6 |
| 20260503230029 | 25 | 27 | 0.0 | 4.8 | 0.00 | 0.00 | 0.00 | 46 | 1018.8 |
| 20260503224527 | 25 | 214 | 1.6 | 9.7 | 0.00 | 0.00 | 0.00 | 46 | 1018.8 |